Location: Unspecified
(34.1750°S, 150.8048°E)
Time: 23:29:48
(UTC+10:00)

BlueWalker 3 - Visible Passes

Search period start: 13 July 2025 00:00
Search period end: 23 July 2025 00:00
Orbit: 461 x 470 km, 53.2° (Epoch: 13 July)

Date Brightness Start Highest point End Pass type
(mag) Time Alt. Az. Time Alt. Az. Time Alt. Az.
13 Jul 5.0 05:26:28 10° NNE 05:28:30 14° NE 05:30:34 10° E visible
14 Jul 5.1 04:55:00 10° NE 04:56:03 11° ENE 04:57:06 10° ENE visible
14 Jul 1.8 06:29:41 10° NW 06:33:17 59° SW 06:36:57 10° SE visible
15 Jul 1.7 05:57:05 10° NW 06:00:44 78° SW 06:04:25 10° SE visible
16 Jul 1.8 05:26:36 32° NW 05:28:11 81° NE 05:31:52 10° SE visible
17 Jul 2.9 04:56:35 42° ESE 04:56:35 42° ESE 04:59:15 10° SE visible
17 Jul 3.6 06:31:16 10° WSW 06:33:37 16° SSW 06:35:57 10° S visible
18 Jul 4.9 04:26:12 13° ESE 04:26:12 13° ESE 04:26:36 10° ESE visible
18 Jul 3.3 06:00:10 18° SW 06:00:56 19° SW 06:03:37 10° SSE visible
19 Jul 3.6 05:29:28 19° S 05:29:28 19° S 05:31:14 10° SSE visible
20 Jul 4.5 04:58:35 11° SSE 04:58:35 11° SSE 04:58:47 10° SSE visible
